Voltar ao catálogo

FENGYUN 1C DEB

AtivoSSO
NORAD 32197·DEBRIS·🇨🇳 China

Lançado May 10, 1999 de Taiyuan Satellite Launch Center

Loading…

Próximas Passagens (próximas 24 horas)

TLE

AtualizadoSource: Space-Track

Época: Sep 14, 2026, 14:42 UTC

1 32197U 99025CUT 26257.61281681  .00000509  00000-0  17573-3 0  9992
2 32197  98.8952 179.3240 0161362 142.0178 340.2105 14.33233662983742

Acompanhe FENGYUN 1C DEB em tempo real com AllMySat

Download on the App Store